Location: Mountain Grove
(34.0887°N, 86.6172°W)
Time: 13:31:33
(UTC+00:00)

COSMOS 2428 - Pass Details

Date: 14 July 2020
Orbit: 844 x 859 km, 70.9° (Epoch: 13 August)

Event Time Altitude Azimuth Distance (km) Brightness Sun altitude
Rises 01:21:13 0° 194° (SSW) 3,385 5.7 -4.8°
Reaches altitude 10° 01:23:39 10° 193° (SSW) 2,453 4.9 -5.3°
Maximum altitude 01:29:16 74° 109° (ESE) 877 2.7 -6.3°
Drops below altitude 10° 01:34:55 10° 25° (NNE) 2,470 5.2 -7.3°
Sets 01:37:23 0° 24° (NNE) 3,410 6.0 -7.7°
